Tracking 28081 objects as of 26-Sep-2023
HD Live streaming from Space Station
objects crossing your sky now

STARLINK-5420

Track STARLINK-5420 now!
10-day predictions
STARLINK-5420 is classified as:


NORAD ID: 54798
Int'l Code: 2022-175AS
Perigee: 546.0 km
Apogee: 547.7 km
Inclination: 53.2 °
Period: 95.4 minutes
Semi major axis: 6917 km
RCS: Unknown
Launch date: December 17, 2022
Source: United States (US)
Launch site: AIR FORCE EASTERN TEST RANGE (AFETR)
Your satellite tracking list
Your tracking list is empty




NASA's NSSDC Master Catalog

Two Line Element Set (TLE):
1 54798U 22175AS  23268.79376168  .00001699  00000-0  12477-3 0  9997
2 54798  53.2180  80.7182 0001247  86.8400 273.2735 15.08849122 45020
Source of the keplerian elements: AFSPC